Location: Port Colborne
(42.8865°N, 79.2509°W)
Time: 19:11:21
(UTC-04:00)

OTV 5 (USA 277) - Pass Details

Date: 29 August 2019
Orbit: 295 x 339 km, 54.5° (Epoch: 08 September)

Event Time Altitude Azimuth Distance (km) Brightness Sun altitude
Rises 21:10:30 0° 280° (W) 2,003 ? -13.5°
Reaches altitude 10° 21:13:19 10° 315° (NW) 1,173 ? -13.9°
Maximum altitude 21:14:25 12° 340° (NNW) 1,068 ? -14.1°
Drops below altitude 10° 21:15:32 10° 6° (N) 1,169 ? -14.3°
Enters shadow 21:17:57 - 38° (NE) 1,854 ? -14.7°
